SCF3749 ZPLJ-ZBAD

Flight info

Callsign SCF3749
Flight time N/A
Altitude 31100
Route SB21D SB W162 KAKMI W144 IGNAK W179 WFX W233 AGULU W81 APIMI W275 WJC G212 BELAX BELAX5L
Aircraft A320/M-SDE3FGHIRWY/LB1

Departure

Time N/A
Airport Lijiang Sanyi International Airport (ZPLJ)

Arrival

Time 2026-05-06 12:01
Airport Beijing Daxing International Airport (ZBAD)
Time Latitude Longitude Altitude Speed Heading
2026-05-06 09:56 31.07317 105.06466 30950 ft 481 kts 55°
2026-05-06 09:56 31.09122 105.09749 30946 ft 481 kts 55°
2026-05-06 09:56 31.12728 105.16318 30940 ft 480 kts 55°
2026-05-06 09:57 31.16327 105.22887 30945 ft 480 kts 55°
2026-05-06 09:57 31.19914 105.29441 30933 ft 480 kts 55°
2026-05-06 09:58 31.23501 105.36003 30943 ft 478 kts 55°
2026-05-06 09:58 31.27123 105.42447 30943 ft 477 kts 54°
2026-05-06 09:59 31.30844 105.48859 30938 ft 476 kts 54°
2026-05-06 09:59 31.34553 105.55276 30936 ft 476 kts 54°
2026-05-06 10:00 31.38232 105.61711 30949 ft 476 kts 54°
2026-05-06 10:00 31.41894 105.68154 30936 ft 475 kts 54°
2026-05-06 10:01 31.45533 105.74564 30933 ft 475 kts 54°
2026-05-06 10:01 31.49189 105.81009 30940 ft 475 kts 54°
2026-05-06 10:02 31.52845 105.87452 30933 ft 475 kts 54°
2026-05-06 10:02 31.56500 105.93902 30938 ft 475 kts 54°
2026-05-06 10:03 31.60146 106.00355 30947 ft 475 kts 54°
2026-05-06 10:03 31.63792 106.06829 30939 ft 476 kts 54°
2026-05-06 10:04 31.67445 106.13315 30930 ft 477 kts 54°
2026-05-06 10:04 31.71098 106.19815 30926 ft 477 kts 55°
2026-05-06 10:05 31.74750 106.26318 30930 ft 477 kts 55°
2026-05-06 10:05 31.78401 106.32838 30940 ft 477 kts 55°
2026-05-06 10:06 31.82042 106.39360 30949 ft 477 kts 56°
2026-05-06 10:06 31.85697 106.45886 30929 ft 478 kts 56°
2026-05-06 10:07 31.89321 106.52381 30938 ft 479 kts 56°
2026-05-06 10:07 31.92965 106.58940 30952 ft 479 kts 56°
2026-05-06 10:08 31.96615 106.65508 30950 ft 479 kts 56°
2026-05-06 10:08 32.00261 106.72083 30935 ft 480 kts 57°
2026-05-06 10:09 32.03906 106.78662 30967 ft 479 kts 56°
2026-05-06 10:09 32.07551 106.85258 30951 ft 481 kts 57°
2026-05-06 10:10 32.11200 106.91876 30953 ft 481 kts 57°
2026-05-06 10:10 32.14842 106.98505 30968 ft 482 kts 57°
2026-05-06 10:11 32.18491 107.05149 30966 ft 482 kts 56°
2026-05-06 10:11 32.22146 107.11797 30974 ft 483 kts 56°
2026-05-06 10:12 32.25744 107.18508 30984 ft 484 kts 62°
2026-05-06 10:12 32.28257 107.25880 31001 ft 484 kts 71°
2026-05-06 10:13 32.30553 107.33365 31011 ft 484 kts 70°
2026-05-06 10:13 32.32863 107.40847 30998 ft 485 kts 69°
2026-05-06 10:14 32.35159 107.48282 31021 ft 485 kts 70°
2026-05-06 10:14 32.37437 107.55709 31011 ft 485 kts 70°
2026-05-06 10:15 32.39718 107.63214 31004 ft 485 kts 70°
2026-05-06 10:15 32.41998 107.70734 31022 ft 485 kts 70°
2026-05-06 10:16 32.44283 107.78248 31024 ft 485 kts 70°
2026-05-06 10:16 32.46571 107.85768 31025 ft 486 kts 70°
2026-05-06 10:17 32.48880 107.93287 31029 ft 485 kts 66°
2026-05-06 10:17 32.50472 107.96798 31034 ft 484 kts 54°
2026-05-06 10:17 32.52564 107.99903 31031 ft 481 kts 44°
2026-05-06 10:18 32.55072 108.02504 31037 ft 477 kts 33°
2026-05-06 10:18 32.57895 108.04536 31043 ft 473 kts 22°
2026-05-06 10:18 32.63051 108.06693 31045 ft 468 kts 12°
2026-05-06 10:19 32.69270 108.08874 31047 ft 469 kts 13°
2026-05-06 10:19 32.75566 108.11102 31039 ft 469 kts 13°
2026-05-06 10:20 32.81780 108.13314 31041 ft 470 kts 13°
2026-05-06 10:20 32.88044 108.15537 31050 ft 470 kts 13°
2026-05-06 10:21 32.94305 108.17760 31044 ft 470 kts 12°
2026-05-06 10:21 33.00569 108.19979 31039 ft 469 kts 12°
2026-05-06 10:22 33.06836 108.22209 31048 ft 470 kts 13°
2026-05-06 10:22 33.13104 108.24453 31061 ft 470 kts 12°
2026-05-06 10:23 33.19377 108.26704 31059 ft 470 kts 12°
2026-05-06 10:23 33.25642 108.28949 31066 ft 470 kts 12°
2026-05-06 10:24 33.31908 108.31193 31062 ft 470 kts 13°
2026-05-06 10:24 33.38127 108.33664 31092 ft 471 kts 15°
2026-05-06 10:25 33.44281 108.36353 31086 ft 471 kts 15°
2026-05-06 10:25 33.50398 108.39006 31102 ft 470 kts 15°
2026-05-06 10:26 33.56567 108.41609 31114 ft 470 kts 15°
2026-05-06 10:26 33.62735 108.44207 31112 ft 470 kts 14°
2026-05-06 10:27 33.68912 108.46820 31114 ft 471 kts 14°
2026-05-06 10:27 33.75099 108.49452 31120 ft 472 kts 15°
2026-05-06 10:28 33.81280 108.52078 31123 ft 472 kts 14°
2026-05-06 10:28 33.87482 108.54707 31132 ft 473 kts 14°
2026-05-06 10:29 33.93684 108.57355 31118 ft 472 kts 14°
2026-05-06 10:29 33.99892 108.60011 31125 ft 474 kts 14°
2026-05-06 10:30 34.06102 108.62674 31135 ft 474 kts 14°
2026-05-06 10:30 34.12317 108.65338 31124 ft 474 kts 14°
2026-05-06 10:31 34.18538 108.67995 31121 ft 474 kts 14°
2026-05-06 10:31 34.24756 108.70672 31114 ft 474 kts 14°
2026-05-06 10:32 34.30975 108.73357 31137 ft 474 kts 14°
2026-05-06 10:32 34.37189 108.76033 31138 ft 473 kts 14°
2026-05-06 10:33 34.43389 108.78708 31127 ft 473 kts 14°
2026-05-06 10:33 34.49589 108.81383 31117 ft 473 kts 14°
2026-05-06 10:34 34.55789 108.84060 31140 ft 473 kts 13°
2026-05-06 10:34 34.61979 108.86737 31140 ft 472 kts 13°
2026-05-06 10:35 34.68153 108.89412 31138 ft 471 kts 13°
2026-05-06 10:35 34.74328 108.92097 31133 ft 471 kts 13°
2026-05-06 10:36 34.80450 108.94753 31150 ft 470 kts 13°
2026-05-06 10:36 34.86601 108.97428 31144 ft 469 kts 13°
2026-05-06 10:37 34.92743 109.00106 31131 ft 469 kts 13°
2026-05-06 10:37 34.98884 109.02784 31129 ft 469 kts 13°
2026-05-06 10:38 35.05023 109.05470 31126 ft 469 kts 13°
2026-05-06 10:38 35.11156 109.08162 31126 ft 468 kts 13°
2026-05-06 10:39 35.17287 109.10851 31127 ft 468 kts 13°
2026-05-06 10:39 35.23419 109.13548 31126 ft 468 kts 13°
2026-05-06 10:40 35.29552 109.16247 31112 ft 469 kts 13°
2026-05-06 10:40 35.35694 109.18953 31110 ft 469 kts 13°
2026-05-06 10:41 35.41841 109.21667 31101 ft 469 kts 13°
2026-05-06 10:41 35.47982 109.24391 31108 ft 470 kts 13°
2026-05-06 10:42 35.54125 109.27122 31104 ft 470 kts 13°
2026-05-06 10:42 35.60276 109.29847 31096 ft 470 kts 13°
2026-05-06 10:43 35.66423 109.32573 31112 ft 470 kts 12°
2026-05-06 10:44 35.75507 109.37084 31085 ft 481 kts 25°
2026-05-06 10:44 35.78244 109.39501 31082 ft 489 kts 36°
2026-05-06 10:44 35.80678 109.42545 31080 ft 496 kts 46°
2026-05-06 10:45 35.84755 109.49388 31082 ft 499 kts 50°
2026-05-06 10:45 35.88829 109.56318 31089 ft 500 kts 50°
2026-05-06 10:46 35.92928 109.63313 31083 ft 500 kts 50°
2026-05-06 10:46 35.96969 109.70233 31081 ft 501 kts 50°
2026-05-06 10:47 36.01047 109.77215 31077 ft 501 kts 50°
2026-05-06 10:47 36.05129 109.84211 31092 ft 502 kts 50°
2026-05-06 10:48 36.09210 109.91225 31076 ft 503 kts 50°
2026-05-06 10:48 36.13293 109.98259 31070 ft 504 kts 50°
2026-05-06 10:49 36.17371 110.05303 31068 ft 503 kts 50°
2026-05-06 10:49 36.21446 110.12361 31048 ft 504 kts 50°
2026-05-06 10:50 36.25513 110.19430 31058 ft 504 kts 50°
2026-05-06 10:50 36.29586 110.26514 31043 ft 505 kts 50°
2026-05-06 10:51 36.33653 110.33611 31039 ft 505 kts 50°
2026-05-06 10:51 36.37720 110.40719 31032 ft 505 kts 50°
2026-05-06 10:52 36.41786 110.47836 31040 ft 506 kts 50°
2026-05-06 10:52 36.45860 110.54979 31019 ft 507 kts 50°
2026-05-06 10:53 36.49933 110.62135 31016 ft 507 kts 50°
2026-05-06 10:53 36.54004 110.69309 31028 ft 508 kts 50°
2026-05-06 10:54 36.58042 110.76461 31062 ft 509 kts 50°
2026-05-06 10:54 36.62112 110.83673 31055 ft 509 kts 50°
2026-05-06 10:55 36.66190 110.90883 31053 ft 510 kts 50°
2026-05-06 10:55 36.70286 110.98169 31053 ft 510 kts 50°
2026-05-06 10:56 36.74833 111.04844 31066 ft 504 kts 42°
2026-05-06 10:56 36.79496 111.11293 31075 ft 504 kts 42°
2026-05-06 10:57 36.84187 111.17790 31064 ft 503 kts 42°
2026-05-06 10:57 36.85756 111.19972 31062 ft 503 kts 42°
2026-05-06 10:59 36.86867 111.21232 30957 ft 489 kts 26°
2026-05-06 10:59 36.89888 111.22849 30357 ft 460 kts
2026-05-06 10:59 36.92963 111.22877 29739 ft 430 kts 338°
2026-05-06 10:59 36.95592 111.21420 29102 ft 406 kts 315°
2026-05-06 11:00 36.97360 111.18801 28519 ft 391 kts 291°
2026-05-06 11:00 36.97965 111.15539 27972 ft 387 kts 268°
2026-05-06 11:00 36.97301 111.12280 27474 ft 395 kts 244°
2026-05-06 11:00 36.95479 111.09669 27006 ft 410 kts 220°
2026-05-06 11:01 36.92814 111.08238 26581 ft 432 kts 196°
2026-05-06 11:01 36.89752 111.08308 26181 ft 454 kts 173°
2026-05-06 11:01 36.86819 111.09947 25821 ft 475 kts 149°
2026-05-06 11:01 36.84504 111.12961 25485 ft 490 kts 126°
2026-05-06 11:02 36.83202 111.16909 25169 ft 498 kts 103°
2026-05-06 11:02 36.83127 111.21214 24900 ft 500 kts 80°
2026-05-06 11:02 36.84293 111.25267 24654 ft 497 kts 57°
2026-05-06 11:02 36.86526 111.28484 24431 ft 488 kts 34°
2026-05-06 11:03 36.89484 111.30414 24246 ft 477 kts 12°
2026-05-06 11:03 36.92713 111.30815 24080 ft 462 kts 349°
2026-05-06 11:03 36.95685 111.29692 23942 ft 449 kts 327°
2026-05-06 11:03 36.98025 111.27232 23839 ft 437 kts 303°
2026-05-06 11:04 36.99328 111.23873 23750 ft 428 kts 281°
2026-05-06 11:04 36.99394 111.20192 23685 ft 426 kts 258°
2026-05-06 11:04 36.98222 111.16814 23646 ft 429 kts 235°
2026-05-06 11:04 36.96003 111.14315 23628 ft 437 kts 212°
2026-05-06 11:05 36.93095 111.13136 23635 ft 449 kts 190°
2026-05-06 11:05 36.89962 111.13497 23636 ft 463 kts 167°
2026-05-06 11:05 36.87088 111.15401 23673 ft 477 kts 144°
2026-05-06 11:05 36.84943 111.18581 23737 ft 486 kts 121°
2026-05-06 11:06 36.83862 111.22592 23815 ft 494 kts 99°
2026-05-06 11:06 36.84021 111.26869 23912 ft 497 kts 76°
2026-05-06 11:06 36.85404 111.30790 24039 ft 495 kts 53°
2026-05-06 11:06 36.86899 111.32909 24140 ft 490 kts 38°
2026-05-06 11:07 36.90851 111.35456 24379 ft 475 kts
2026-05-06 11:07 36.93004 111.35709 24516 ft 465 kts 352°
2026-05-06 11:07 36.96078 111.34803 24740 ft 449 kts 329°
2026-05-06 11:07 36.98524 111.32538 24989 ft 433 kts 306°
2026-05-06 11:08 36.99968 111.29326 25272 ft 421 kts 284°
2026-05-06 11:08 37.00191 111.25741 25589 ft 414 kts 261°
2026-05-06 11:08 36.99174 111.22401 25916 ft 416 kts 238°
2026-05-06 11:08 36.97088 111.19884 26264 ft 426 kts 215°
2026-05-06 11:09 36.94267 111.18639 26647 ft 442 kts 193°
2026-05-06 11:09 36.91160 111.18921 27052 ft 460 kts 170°
2026-05-06 11:09 36.88265 111.20744 27484 ft 478 kts 147°
2026-05-06 11:09 36.86040 111.23890 27939 ft 493 kts 124°
2026-05-06 11:10 36.84850 111.27915 28417 ft 500 kts 101°
2026-05-06 11:10 36.84889 111.32232 28928 ft 498 kts 76°
2026-05-06 11:10 36.86144 111.36189 29463 ft 485 kts 52°
2026-05-06 11:10 36.88380 111.39187 30037 ft 463 kts 27°
2026-05-06 11:11 36.91188 111.40806 30513 ft 431 kts
2026-05-06 11:11 36.94031 111.40872 31022 ft 393 kts 336°
2026-05-06 11:11 36.96370 111.39517 31558 ft 355 kts 310°
2026-05-06 11:11 36.97750 111.37170 32113 ft 325 kts 283°
2026-05-06 11:12 36.97921 111.34470 32687 ft 310 kts 257°
2026-05-06 11:12 36.96885 111.32130 33292 ft 317 kts 230°
2026-05-06 11:12 36.94911 111.30800 33891 ft 339 kts 202°
2026-05-06 11:12 36.92478 111.30903 34432 ft 368 kts 174°
2026-05-06 11:13 36.90183 111.32529 34958 ft 395 kts 145°
2026-05-06 11:13 36.88578 111.35385 35346 ft 415 kts 117°
2026-05-06 11:13 36.87969 111.38976 35266 ft 436 kts 89°
2026-05-06 11:13 36.88544 111.42670 34970 ft 445 kts 59°
2026-05-06 11:14 36.90301 111.45795 35038 ft 426 kts 34°
2026-05-06 11:14 36.92439 111.48308 34830 ft 439 kts 34°
2026-05-06 11:14 36.94720 111.50942 34233 ft 451 kts 34°
2026-05-06 11:14 36.97105 111.53538 33114 ft 457 kts 25°
2026-05-06 11:15 36.99825 111.55680 31937 ft 469 kts 23°
2026-05-06 11:15 37.02640 111.57828 31408 ft 477 kts 23°
2026-05-06 11:15 37.05491 111.60002 31178 ft 482 kts 24°
2026-05-06 11:15 37.08347 111.62221 31030 ft 483 kts 24°
2026-05-06 11:16 37.11189 111.64477 31087 ft 486 kts 25°
2026-05-06 11:16 37.16881 111.69067 31077 ft 487 kts 25°
2026-05-06 11:17 37.22540 111.73758 31086 ft 492 kts 31°
2026-05-06 11:17 37.27293 111.80076 31082 ft 507 kts 52°
2026-05-06 11:18 37.30665 111.87907 31099 ft 511 kts 60°
2026-05-06 11:18 37.33899 111.95841 31084 ft 510 kts 60°
2026-05-06 11:19 37.37145 112.03775 31073 ft 510 kts 59°
2026-05-06 11:19 37.40383 112.11701 31067 ft 510 kts 60°
2026-05-06 11:20 37.43615 112.19635 31098 ft 509 kts 60°
2026-05-06 11:20 37.46836 112.27571 31083 ft 509 kts 60°
2026-05-06 11:21 37.50042 112.35512 31081 ft 509 kts 60°
2026-05-06 11:21 37.53239 112.43448 31078 ft 508 kts 60°
2026-05-06 11:22 37.56435 112.51404 31087 ft 508 kts 60°
2026-05-06 11:22 37.59626 112.59359 31106 ft 509 kts 60°
2026-05-06 11:23 37.62796 112.67265 31091 ft 509 kts 60°
2026-05-06 11:23 37.65997 112.75229 31087 ft 509 kts 60°
2026-05-06 11:24 37.69208 112.83259 31086 ft 509 kts 61°
2026-05-06 11:24 37.72393 112.91259 31082 ft 510 kts 61°
2026-05-06 11:25 37.75557 112.99217 31097 ft 511 kts 61°
2026-05-06 11:25 37.78746 113.07259 31088 ft 512 kts 61°
2026-05-06 11:26 37.81928 113.15312 31067 ft 512 kts 61°
2026-05-06 11:26 37.85106 113.23383 31076 ft 513 kts 62°
2026-05-06 11:27 37.88286 113.31468 31108 ft 513 kts 62°
2026-05-06 11:27 37.91466 113.39566 31087 ft 514 kts 62°
2026-05-06 11:28 37.94635 113.47690 31068 ft 514 kts 62°
2026-05-06 11:28 37.97791 113.55813 31067 ft 514 kts 62°
2026-05-06 11:29 38.00947 113.63945 31057 ft 514 kts 62°
2026-05-06 11:29 38.04095 113.72081 31052 ft 514 kts 62°
2026-05-06 11:30 38.07238 113.80237 31033 ft 515 kts 62°
2026-05-06 11:30 38.10380 113.88406 31027 ft 516 kts 62°
2026-05-06 11:31 38.13525 113.96612 31030 ft 517 kts 63°
2026-05-06 11:31 38.16668 114.04829 31030 ft 517 kts 63°
2026-05-06 11:32 38.19800 114.13059 31012 ft 517 kts 63°
2026-05-06 11:32 38.22956 114.21288 31002 ft 517 kts 62°
2026-05-06 11:33 38.26109 114.29517 30997 ft 518 kts 63°
2026-05-06 11:33 38.29231 114.37706 31011 ft 518 kts 63°
2026-05-06 11:34 38.32369 114.45969 30985 ft 519 kts 63°
2026-05-06 11:34 38.35503 114.54261 30976 ft 520 kts 63°
2026-05-06 11:35 38.38639 114.62567 30973 ft 521 kts 63°
2026-05-06 11:35 38.41769 114.70896 30975 ft 521 kts 63°
2026-05-06 11:36 38.44890 114.79232 30980 ft 521 kts 63°
2026-05-06 11:36 38.48016 114.87575 30982 ft 521 kts 63°
2026-05-06 11:37 38.51137 114.95925 30985 ft 521 kts 63°
2026-05-06 11:37 38.54242 115.04285 30972 ft 521 kts 64°
2026-05-06 11:38 38.57343 115.12669 30746 ft 523 kts 64°
2026-05-06 11:38 38.58890 115.16874 30509 ft 523 kts 64°
2026-05-06 11:38 38.60432 115.21082 30268 ft 521 kts 64°
2026-05-06 11:38 38.61965 115.25269 30027 ft 520 kts 64°
2026-05-06 11:39 38.63499 115.29449 29773 ft 518 kts 64°
2026-05-06 11:39 38.65025 115.33602 29490 ft 515 kts 64°
2026-05-06 11:39 38.66550 115.37744 29207 ft 513 kts 64°
2026-05-06 11:39 38.68062 115.41860 28937 ft 510 kts 64°
2026-05-06 11:40 38.69566 115.45964 28701 ft 508 kts 64°
2026-05-06 11:40 38.71058 115.50048 28434 ft 506 kts 64°
2026-05-06 11:40 38.72649 115.54042 28155 ft 501 kts 57°
2026-05-06 11:40 38.74427 115.57867 27903 ft 498 kts 57°
2026-05-06 11:41 38.76194 115.61670 27639 ft 496 kts 57°
2026-05-06 11:41 38.77951 115.65457 27380 ft 493 kts 57°
2026-05-06 11:41 38.79698 115.69228 27127 ft 491 kts 57°
2026-05-06 11:41 38.81434 115.72988 26880 ft 489 kts 57°
2026-05-06 11:42 38.83160 115.76735 26648 ft 486 kts 57°
2026-05-06 11:42 38.84868 115.80459 26402 ft 483 kts 57°
2026-05-06 11:42 38.86566 115.84162 26157 ft 480 kts 57°
2026-05-06 11:42 38.88255 115.87840 25914 ft 477 kts 57°
2026-05-06 11:43 38.89931 115.91484 25469 ft 472 kts 57°
2026-05-06 11:43 38.91593 115.95102 24926 ft 469 kts 57°
2026-05-06 11:43 38.93239 115.98693 24424 ft 465 kts 57°
2026-05-06 11:44 38.96468 116.05759 23450 ft 458 kts 57°
2026-05-06 11:44 38.98107 116.09241 22892 ft 452 kts 51°
2026-05-06 11:44 39.00144 116.12227 22430 ft 438 kts 36°
2026-05-06 11:44 39.02568 116.14471 21962 ft 423 kts 22°
2026-05-06 11:45 39.05249 116.15943 21499 ft 407 kts
2026-05-06 11:45 39.07939 116.16617 21048 ft 392 kts 357°
2026-05-06 11:45 39.10613 116.16587 20602 ft 378 kts 345°
2026-05-06 11:45 39.13205 116.16185 20162 ft 373 kts 345°
2026-05-06 11:46 39.15777 116.15790 19717 ft 371 kts 345°
2026-05-06 11:46 39.18333 116.15403 19268 ft 369 kts 345°
2026-05-06 11:46 39.20880 116.15020 18813 ft 367 kts 345°
2026-05-06 11:46 39.23411 116.14640 18364 ft 366 kts 345°
2026-05-06 11:47 39.25937 116.14256 17807 ft 366 kts 346°
2026-05-06 11:47 39.28465 116.13868 17312 ft 364 kts 346°
2026-05-06 11:47 39.30973 116.13485 16824 ft 362 kts 346°
2026-05-06 11:47 39.33463 116.13102 16358 ft 360 kts 346°
2026-05-06 11:48 39.35943 116.12718 15904 ft 358 kts 347°
2026-05-06 11:48 39.38409 116.12336 15418 ft 356 kts 347°
2026-05-06 11:48 39.40866 116.11957 14962 ft 354 kts 347°
2026-05-06 11:48 39.43309 116.11582 14488 ft 352 kts 348°
2026-05-06 11:49 39.45738 116.11210 14016 ft 351 kts 348°
2026-05-06 11:49 39.48152 116.10837 13543 ft 348 kts 348°
2026-05-06 11:49 39.50547 116.10465 13040 ft 345 kts 348°
2026-05-06 11:49 39.52921 116.10099 12548 ft 342 kts 349°
2026-05-06 11:50 39.55270 116.09740 12071 ft 338 kts 349°
2026-05-06 11:50 39.57592 116.09385 11580 ft 334 kts 350°
2026-05-06 11:50 39.59880 116.09037 11090 ft 326 kts 350°
2026-05-06 11:50 39.62074 116.08709 10629 ft 309 kts 351°
2026-05-06 11:51 39.64157 116.08398 10247 ft 293 kts 351°
2026-05-06 11:51 39.66118 116.08102 9967 ft 276 kts 351°
2026-05-06 11:51 39.67994 116.07814 9636 ft 267 kts 351°
2026-05-06 11:51 39.69847 116.07527 9509 ft 269 kts 351°
2026-05-06 11:52 39.71696 116.07238 9379 ft 267 kts 351°
2026-05-06 11:52 39.73553 116.07206 9171 ft 271 kts
2026-05-06 11:52 39.75280 116.08204 8749 ft 279 kts 34°
2026-05-06 11:52 39.76489 116.10206 8264 ft 291 kts 63°
2026-05-06 11:53 39.76907 116.12763 7927 ft 293 kts 79°
2026-05-06 11:53 39.77140 116.15383 7555 ft 291 kts 79°
2026-05-06 11:53 39.77378 116.17954 7379 ft 281 kts 78°
2026-05-06 11:53 39.77608 116.20410 7257 ft 270 kts 78°
2026-05-06 11:54 39.77832 116.22788 7123 ft 260 kts 78°
2026-05-06 11:54 39.78045 116.25096 6846 ft 256 kts 78°
2026-05-06 11:54 39.78255 116.27395 6485 ft 257 kts 78°
2026-05-06 11:54 39.78464 116.29708 6111 ft 258 kts 79°
2026-05-06 11:55 39.78446 116.32022 5768 ft 261 kts 104°
2026-05-06 11:55 39.77501 116.34018 5322 ft 267 kts 140°
2026-05-06 11:55 39.76406 116.34835 4891 ft 272 kts 166°
2026-05-06 11:55 39.74554 116.35214 4481 ft 265 kts 178°
2026-05-06 11:56 39.72213 116.35488 4015 ft 245 kts 175°
2026-05-06 11:56 39.70583 116.35739 3703 ft 234 kts 175°
2026-05-06 11:56 39.69004 116.35992 3403 ft 223 kts 174°
2026-05-06 11:56 39.67998 116.36153 3212 ft 217 kts 174°
2026-05-06 11:57 39.66050 116.36462 2841 ft 206 kts 173°
2026-05-06 11:57 39.65123 116.36608 2682 ft 198 kts 173°
2026-05-06 11:57 39.63802 116.36818 2417 ft 185 kts 172°
2026-05-06 11:57 39.62565 116.37013 2170 ft 173 kts 171°
2026-05-06 11:58 39.61424 116.37193 1977 ft 156 kts 170°
2026-05-06 11:58 39.60392 116.37357 1746 ft 145 kts 171°
2026-05-06 11:58 39.59410 116.37513 1557 ft 141 kts 171°
2026-05-06 11:58 39.58439 116.37668 1368 ft 141 kts 171°
2026-05-06 11:59 39.57469 116.37821 1187 ft 139 kts 170°
2026-05-06 11:59 39.56507 116.37974 1003 ft 140 kts 169°
2026-05-06 11:59 39.55541 116.38125 857 ft 140 kts 172°
2026-05-06 11:59 39.54579 116.38276 674 ft 139 kts 169°
2026-05-06 12:00 39.53622 116.38430 505 ft 138 kts 171°
2026-05-06 12:00 39.52670 116.38581 305 ft 138 kts 172°
2026-05-06 12:00 39.51716 116.38735 141 ft 138 kts 172°
2026-05-06 12:00 39.50814 116.38880 98 ft 118 kts 174°
2026-05-06 12:01 39.50170 116.38979 94 ft 68 kts 173°
2026-05-06 12:01 39.49826 116.39035 99 ft 44 kts 173°
2026-05-06 12:01 39.49549 116.39078 99 ft 31 kts 170°
2026-05-06 12:01 39.49354 116.39172 98 ft 31 kts 149°
2026-05-06 12:02 39.49172 116.39330 89 ft 32 kts 146°
2026-05-06 12:02 39.49002 116.39479 89 ft 23 kts 143°
2026-05-06 12:02 39.48976 116.39536 86 ft 6 kts 53°
2026-05-06 12:02 39.49015 116.39635 87 ft 16 kts 79°
2026-05-06 12:03 39.49030 116.39784 87 ft 17 kts 83°
2026-05-06 12:03 39.49044 116.39936 94 ft 16 kts 83°
2026-05-06 12:03 39.49060 116.40108 100 ft 22 kts 82°
2026-05-06 12:03 39.49079 116.40311 89 ft 18 kts 80°
2026-05-06 12:04 39.49187 116.40361 86 ft 19 kts 354°
2026-05-06 12:04 39.49326 116.40344 88 ft 21 kts 352°
2026-05-06 12:04 39.49478 116.40319 87 ft 23 kts 353°
2026-05-06 12:04 39.49644 116.40293 88 ft 25 kts 353°
2026-05-06 12:05 39.49821 116.40265 86 ft 27 kts 353°
2026-05-06 12:05 39.49981 116.40242 88 ft 18 kts
2026-05-06 12:05 39.50031 116.40374 85 ft 19 kts 83°
2026-05-06 12:05 39.50048 116.40553 85 ft 21 kts 83°
2026-05-06 12:06 39.50066 116.40750 85 ft 23 kts 83°
2026-05-06 12:06 39.50088 116.40963 87 ft 25 kts 83°
2026-05-06 12:06 39.50109 116.41190 85 ft 26 kts 83°
2026-05-06 12:06 39.50131 116.41430 86 ft 28 kts 83°
2026-05-06 12:07 39.50156 116.41681 85 ft 29 kts 83°
2026-05-06 12:07 39.50179 116.41941 85 ft 30 kts 83°
2026-05-06 12:07 39.50209 116.42173 87 ft 18 kts 55°
2026-05-06 12:07 39.50331 116.42186 87 ft 19 kts 353°
2026-05-06 12:08 39.50469 116.42166 89 ft 21 kts 353°
2026-05-06 12:08 39.50619 116.42142 87 ft 23 kts 353°
2026-05-06 12:08 39.50783 116.42117 87 ft 25 kts 353°
2026-05-06 12:08 39.50955 116.42088 87 ft 26 kts 353°
2026-05-06 12:09 39.51143 116.42059 87 ft 28 kts 353°
2026-05-06 12:09 39.51341 116.42028 87 ft 29 kts 353°
2026-05-06 12:09 39.51548 116.41995 88 ft 31 kts 353°
2026-05-06 12:09 39.51755 116.41978 86 ft 24 kts
2026-05-06 12:10 39.51880 116.42099 86 ft 24 kts 62°
2026-05-06 12:10 39.51912 116.42316 85 ft 25 kts 82°
2026-05-06 12:10 39.51934 116.42549 85 ft 27 kts 83°
2026-05-06 12:10 39.51956 116.42793 87 ft 28 kts 83°
2026-05-06 12:11 39.51977 116.42958 88 ft 13 kts 64°
2026-05-06 12:11 39.52027 116.43002 88 ft 7 kts 14°
2026-05-06 12:11 39.52056 116.43011 89 ft 0 kts 13°